Flag for Saint Kitts and Nevis Weather past 2 weeks in Basseterre, Saint Kitts and Nevis

Now
82 °F

Passing clouds.


Feels Like: 88 °F
Forecast: 80 / 82 °F
Wind: 13 mph from East

Location: Golden Rock

Current Time: Dec 19, 2014 at 2:32:54 PM

Latest Report: Dec 19, 2014 at 2:00 PM


Visibility: N/A

Pressure: 29.95 "Hg

Humidity: 74%

Dew point: 73 °F

Location of BasseterreLocation

Historic Weather in Basseterre — Graph

°F

Basseterre temperature yesterday

Maximum temperature yesterday: 81 °F (at 11:00 AM)
Minimum temperature yesterday: 75 °F (at 6:00 AM)
Average temperature yesterday: 78 °F

Past Weeks' High & Low Weather Summary

 TemperatureHumidityPressure
High84 °F (Dec 7, 10:00 AM)100% (Dec 16, 4:00 PM)30.07 "Hg (Dec 16, 4:00 PM)
Low68 °F (Dec 8, 6:00 AM)62% (Dec 7, 3:00 PM)29.80 "Hg (Dec 6, 3:00 PM)
Average79 °F81%29.95 "Hg
* Reported Dec 4 4:00 PM — Dec 19 1:00 PM, Basseterre, Weather by CustomWeather, © 2014

Note: Actual official high and low records may vary slightly from our data, if they occured in-between our weather recording intervals... More about our weather records

Advertising

Basseterre weather history for previous 24 hours

 ConditionsComfort  
Time TempWeatherWind HumidityBarometerVisibility
1:00 PM
Dec 19
82 °FPassing clouds.16 mph79%29.98 "HgN/A
12:00 PM82 °FPassing clouds.15 mph74%29.98 "HgN/A
11:00 AM82 °FScattered clouds.16 mph74%30.01 "HgN/A
10:00 AM84 °FScattered clouds.14 mph70%30.01 "HgN/A
9:00 AM81 °FPassing clouds.14 mph74%29.98 "HgN/A
8:00 AM81 °FPassing clouds.14 mph74%29.95 "HgN/A
7:00 AM77 °FPassing clouds.12 mph79%29.95 "HgN/A
6:00 AM77 °FPassing clouds.12 mph79%29.92 "HgN/A
10:00 PM
Dec 18
75 °FPassing clouds.8 mph78%29.98 "HgN/A
9:00 PM77 °FPassing clouds.7 mph83%29.98 "HgN/A
8:00 PM77 °FPassing clouds.9 mph79%29.98 "HgN/A
6:00 PM77 °FPassing clouds.12 mph83%29.95 "HgN/A
5:00 PM77 °FScattered clouds.12 mph83%29.95 "HgN/A
4:00 PM81 °FScattered clouds.14 mph79%29.95 "HgN/A
3:00 PM79 °FPartly sunny.13 mph79%29.95 "HgN/A
2:00 PM79 °FPartly sunny.16 mph79%29.95 "HgN/A
Weather by CustomWeather, © 2014

See weather overviewHow to use our weather pages